Temp
25 24 23 25 29 30 30 29 30 28 28 28 28 27 26 26 27 28 21 21 22 21 21 21 21 21 21 21 21 21 21 21 21 21 21 21 21 21 21 21 21 21 21 21 21 21 21 20 20
24 23 24 26 30 31 29 29 29 29 28 27 27 26 26 26 24 23 22 21 22 22 22 22 21 21 21 21 22 21 21 21 21 22 21 21 21 21 21 21 21 21 21 21 21 21 21 21 21
24 24 27 29 30 30 30 29 29 28 27 28 27 26 26 25 23 23 22 21 22 22 22 22 22 22 22 22 22 21 21 21 21 21 21 21 21 21 21 21 21 21 21 21 21 21 21 22 22
25 26 27 30 30 30 30 29 29 29 29 28 28 26 26 25 24 23 22 22 22 22 22 22 22 22 22 21 22 21 21 21 21 22 21 21 21 21 21 21 21 21 21 21 21 21 21 22 22
24 26 29 29 30 30 30 30 29 29 28 28 28 26 25 24 23 22 22 21 22 22 22 22 21 22 22 22 21 22 21 21 21 21 21 21 21 21 21 21 21 21 21 21 21 21 22 23 22
27 26 30 29 30 30 30 30 29 29 28 27 27 27 25 23 23 22 22 22 22 22 22 22 22 22 21 21 21 21 22 21 21 21 21 21 21 21 21 21 21 21 21 22 23 23 23 23 23
28 28 29 30 30 30 30 30 29 29 28 28 28 27 24 24 23 22 21 21 22 22 22 22 22 21 21 21 21 21 21 21 21 21 21 21 21 22 22 21 22 22 22 23 23 23 23 23 23
25 29 29 30 30 30 30 30 30 30 28 29 29 27 25 24 22 22 21 22 22 22 22 22 21 22 22 22 21 21 21 21 22 21 20 21 21 21 22 22 23 23 23 23 24 24 24 24 24
25 30 30 30 30 30 30 30 29 29 29 29 28 28 27 23 22 22 22 21 21 21 22 21 21 21 21 21 21 21 21 21 22 21 21 21 22 22 22 22 23 23 23 23 23 24 24 24 24
28 30 31 31 31 31 30 30 30 29 29 28 26 26 24 23 23 24 23 22 22 22 21 21 21 21 21 22 22 21 21 22 22 21 21 21 22 22 22 23 24 23 23 23 23 23 24 24 23
29 31 30 31 32 32 31 30 30 30 29 29 27 26 25 24 24 24 24 23 22 22 21 21 21 20 21 22 21 22 21 21 21 22 22 23 22 22 22 22 23 22 24 23 23 24 25 24 24
31 30 31 31 32 32 31 31 30 30 31 30 29 27 26 26 25 25 24 23 23 22 22 21 21 21 21 21 21 21 21 21 21 21 23 23 23 24 23 22 23 24 25 24 24 24 25 25 25
30 32 32 32 32 32 31 31 31 30 30 30 28 27 27 27 26 25 25 24 24 23 22 22 20 20 20 20 21 21 21 21 21 22 23 23 23 24 23 23 23 23 24 25 24 25 25 25 25
31 31 31 32 32 32 32 31 31 30 29 28 27 27 27 27 26 26 25 25 24 23 22 22 21 20 20 20 21 21 21 21 23 23 23 24 24 24 24 24 24 25 25 25 25 25 25 26 26
31 32 33 32 32 32 32 31 31 30 29 28 28 28 28 27 26 26 26 25 25 24 23 22 22 21 22 22 22 21 21 22 23 23 24 23 23 23 24 23 24 24 24 24 25 25 25 25 25
31 31 31 32 32 31 33 31 32 30 29 29 28 28 28 28 27 26 26 25 25 24 23 22 22 22 24 24 23 22 23 22 22 22 23 24 24 24 24 23 23 23 24 23 24 23 23 25 24
29 30 30 31 32 32 32 32 32 30 29 29 29 28 28 28 27 27 26 26 25 24 23 22 22 23 23 25 24 24 24 24 24 24 23 24 25 24 24 23 23 24 23 22 22 22 23 23 24
30 30 30 31 30 32 31 32 31 30 30 30 30 29 29 29 29 28 27 26 26 25 24 23 23 23 25 25 25 24 24 25 25 24 24 24 25 25 25 23 24 24 23 22 22 22 23 25 24
29 28 30 31 32 31 32 32 33 30 30 31 30 30 30 30 30 29 28 27 26 25 24 24 24 23 23 22 23 23 24 23 23 25 26 25 25 25 25 25 23 23 23 23 24 24 23 24 23
30 30 31 31 31 30 31 31 32 31 30 31 31 31 30 31 31 30 28 27 26 26 25 24 26 25 24 22 23 23 24 24 24 25 26 26 25 25 24 24 24 23 21 21 21 22 22 22 22
30 31 30 30 31 30 29 31 31 30 30 30 31 31 31 31 31 30 29 28 27 26 25 25 25 26 25 24 23 23 24 24 24 25 25 25 25 25 25 24 23 22 23 21 20 20 21 22 21
31 30 30 30 31 31 29 31 31 30 29 29 29 30 30 31 30 30 30 28 27 26 25 25 25 25 26 24 23 23 24 25 25 24 23 23 23 22 22 22 22 23 21 20 20 20 20 20 21
30 30 30 30 30 29 30 30 33 28 31 30 29 30 30 31 31 31 30 28 27 26 25 24 24 24 24 23 24 23 23 24 22 24 22 22 22 22 24 22 21 21 20 19 19 19 21 21 20
30 30 29 29 28 29 28 29 34 33 30 30 29 29 29 29 29 29 29 26 25 25 24 24 24 23 23 23 24 22 22 22 23 21 19 19 20 20 20 19 19 19 19 19 19 20 20 21 20
30 29 31 31 29 31 27 28 33 31 30 28 28 28 29 28 28 28 27 26 25 24 24 23 24 22 23 24 23 22 21 20 19 19 19 18 18 18 18 18 18 18 18 20 20 20 20 19 20
29 30 31 30 32 33 26 31 35 29 27 26 26 27 26 26 27 27 26 25 26 24 23 24 24 23 24 22 21 20 19 18 18 17 17 18 20 19 19 18 17 18 18 19 19 19 18 19 19
29 29 31 31 27 30 32 31 33 29 30 27 26 26 25 25 25 25 24 23 23 24 23 23 21 22 21 20 20 18 18 20 20 18 17 17 18 18 18 18 18 17 17 18 18 18 18 18 18
31 31 31 30 30 30 32 30 33 34 32 28 27 27 25 23 22 22 23 22 21 21 21 21 21 20 20 20 20 19 19 21 19 19 19 17 17 18 18 17 16 17 17 18 18 18 18 18 18
30 31 29 30 30 31 30 32 32 31 30 28 28 27 25 23 22 21 20 19 18 18 20 19 19 18 18 18 19 20 20 20 20 20 17 16 17 17 16 16 16 16 17 17 17 17 17 17 17
31 31 32 31 31 29 29 30 30 29 28 26 27 26 24 23 20 19 18 18 17 17 18 18 18 18 18 18 18 17 18 18 18 18 16 16 16 15 15 15 15 16 16 16 16 16 16 16 16
Height
776 776 776 776 790 787 804 804 790 801 802 797 799 804 809 808 811 821 815 818 821 824 826 827 829 831 832 833 834 835 836 837 838 839 840 841 843 845 845 847 848 849 850 851 850 850 850 850 851
776 776 776 777 795 803 810 796 800 795 795 796 802 805 808 812 810 813 817 819 822 825 827 829 830 831 833 834 836 837 838 838 839 840 841 842 844 846 847 848 850 851 851 851 852 852 851 851 852
776 776 777 783 794 805 807 799 797 796 795 797 805 804 807 811 813 814 816 819 823 825 828 831 831 832 833 835 837 838 839 840 841 842 844 844 846 847 848 849 851 852 852 853 853 853 853 853 853
776 777 779 790 801 796 795 794 792 796 796 797 800 811 806 809 813 814 817 821 824 826 829 831 832 833 835 836 838 839 841 842 843 844 845 846 847 848 850 851 852 853 853 853 853 853 853 853 854
777 777 791 799 799 794 789 788 791 796 797 799 799 812 813 814 814 816 819 822 825 829 830 832 834 835 837 838 839 841 842 843 844 846 847 849 849 850 851 852 853 854 855 854 854 854 854 854 855
781 782 799 808 800 795 792 788 790 795 797 800 804 806 814 815 816 818 821 824 826 829 831 834 835 836 838 840 841 843 845 846 846 847 849 850 850 851 851 853 854 854 855 854 854 854 855 855 856
782 789 804 801 800 798 793 787 793 796 798 802 798 808 815 816 818 821 823 825 827 830 831 833 835 837 839 841 843 845 847 847 848 849 850 851 851 851 852 853 854 855 855 856 855 855 855 855 856
782 785 798 796 801 799 790 789 789 793 801 795 795 809 816 814 818 822 824 826 829 831 833 834 836 838 840 842 843 844 847 849 849 850 850 851 852 852 853 854 855 856 856 856 856 856 856 856 855
780 791 800 797 796 794 789 793 790 789 795 796 797 799 803 812 818 822 825 828 830 831 832 834 836 838 839 841 844 845 847 848 849 850 851 852 854 855 855 855 855 856 858 858 857 856 856 856 855
783 793 793 782 781 785 787 788 790 795 798 800 802 803 808 813 816 819 822 825 828 830 832 834 836 837 839 841 843 845 847 848 849 851 852 853 854 854 856 855 855 856 857 857 857 857 856 855 855
783 791 783 780 775 776 783 789 786 793 801 795 800 802 806 812 816 818 820 822 825 828 830 832 834 836 838 840 842 844 845 847 848 849 851 853 854 855 856 856 856 857 857 856 857 856 855 855 855
787 780 779 779 775 777 785 783 790 789 788 785 793 799 804 808 811 815 819 821 824 826 829 831 833 835 837 839 841 843 845 846 847 849 851 852 854 855 856 856 857 857 857 857 856 856 855 855 854
785 778 776 774 774 776 779 786 788 791 786 788 796 802 805 808 810 813 816 820 823 824 827 829 832 834 837 837 839 842 844 845 847 847 849 851 853 854 856 856 857 857 857 857 856 856 855 854 854
779 778 777 775 776 777 785 787 786 789 789 793 797 800 803 807 810 812 815 816 820 823 825 827 830 833 836 838 839 840 842 844 846 847 849 850 852 853 854 855 856 856 857 856 855 855 854 854 853
779 786 777 780 779 783 779 795 792 784 788 792 796 799 802 804 808 809 812 814 816 819 823 825 826 830 832 836 838 841 843 844 845 847 849 851 853 854 854 854 854 855 855 856 855 855 854 853 852
788 789 802 787 780 782 782 802 782 782 786 792 794 796 800 802 803 807 810 814 816 819 821 824 827 827 829 833 837 840 843 844 846 848 849 849 851 852 854 855 855 855 854 855 855 855 854 853 853
798 811 808 798 781 784 788 794 780 781 785 789 792 793 794 798 800 803 807 809 813 816 819 821 824 827 830 832 835 838 841 843 844 845 847 848 849 851 852 852 853 854 855 855 855 855 854 854 853
811 810 807 805 793 785 790 787 780 781 783 783 786 789 790 793 793 797 802 806 810 812 816 820 822 823 826 831 834 835 837 839 841 843 845 846 848 849 850 851 851 852 853 854 854 854 852 851 851
800 809 804 793 782 790 784 781 775 778 782 782 781 783 784 783 785 792 798 802 806 809 812 814 819 822 825 826 830 833 835 837 838 839 841 844 846 847 849 849 850 851 851 852 851 850 851 852 851
800 805 801 790 785 791 786 783 771 773 774 774 774 777 777 779 782 786 792 797 799 803 808 811 813 817 822 827 828 830 833 834 836 837 839 841 843 844 846 847 847 848 849 849 850 853 852 851 850
799 801 803 802 790 790 795 785 778 771 770 771 770 771 773 774 776 779 784 788 794 797 800 803 807 812 817 821 826 828 829 831 834 836 837 838 840 842 843 843 844 845 847 848 847 852 852 849 847
805 797 797 799 800 810 798 809 780 775 774 773 770 770 768 768 771 775 777 781 784 787 796 799 803 807 811 817 822 824 827 829 832 834 835 837 838 840 840 841 843 844 847 846 849 849 848 847 846
806 794 799 798 804 807 804 812 776 780 774 772 766 763 762 763 765 768 771 774 778 784 786 791 798 804 808 811 817 822 825 829 830 833 833 835 836 837 838 838 840 842 844 843 841 846 844 844 844
790 798 804 805 812 826 815 814 780 771 773 766 763 760 760 762 763 765 769 774 777 783 785 789 792 799 805 808 813 819 824 828 830 831 832 834 836 838 839 842 841 841 842 842 844 843 842 839 841
796 808 819 823 826 817 816 817 779 766 764 768 764 759 757 758 761 763 766 770 774 780 785 788 791 796 800 806 810 816 822 825 829 831 832 833 834 834 838 840 840 840 840 840 840 840 840 841 839
802 803 814 837 821 808 815 806 768 766 765 765 764 759 758 759 759 763 766 768 771 774 776 781 786 790 796 804 810 816 819 824 829 834 835 830 826 831 832 836 837 839 839 837 837 839 838 841 841
805 810 794 807 823 820 795 785 761 761 760 765 766 766 765 765 766 768 770 771 773 774 776 782 784 789 794 800 805 812 818 818 822 824 817 828 828 831 831 837 840 840 839 838 837 839 840 843 843
786 786 806 810 828 827 800 803 780 759 761 764 765 762 764 769 771 771 772 773 774 774 773 776 779 782 788 793 801 805 810 811 815 815 821 817 822 830 834 838 840 839 837 838 838 838 842 843 843
795 795 804 803 809 814 817 796 766 767 761 763 760 761 765 769 773 774 775 775 775 774 773 775 779 780 786 794 798 799 798 804 805 812 819 815 822 827 834 837 837 837 836 838 840 842 842 844 844
782 787 787 802 810 811 813 799 763 761 759 761 757 759 766 766 772 775 776 776 776 774 774 775 779 784 789 790 795 797 794 798 804 806 814 818 821 825 832 836 836 836 837 839 841 842 844 845 846
Wind_Speed
2 2 1 1 1 2 4 4 2 9 8 3 9 1 3 4 1 3 6 9 17 18 15 14 14 14 14 13 14 14 14 15 15 15 14 14 14 15 14 14 13 13 13 13 13 13 13 14 12
2 3 1 1 3 5 4 3 8 4 9 11 10 5 2 2 2 8 13 12 18 17 16 14 14 14 15 14 13 14 14 14 15 14 14 15 15 15 14 14 13 13 12 13 13 12 12 13 12
4 1 1 2 2 4 5 4 11 12 12 8 4 3 2 2 4 16 7 19 17 16 15 14 14 14 15 14 13 14 14 14 14 14 14 14 15 14 13 13 13 12 12 11 11 11 11 12 11
1 1 2 5 8 4 4 12 10 12 11 5 10 7 4 1 14 7 19 18 17 15 15 14 14 14 13 13 12 13 13 14 13 13 12 14 14 13 13 12 11 11 10 10 9 9 10 9 8
2 1 3 4 6 4 9 12 4 4 6 9 6 7 8 2 5 16 19 16 17 15 14 13 13 13 13 11 13 13 12 12 13 12 14 13 13 13 11 11 10 9 9 9 8 8 7 6 6
1 1 4 5 6 7 5 5 3 5 7 10 12 11 5 6 14 17 17 16 15 16 14 12 11 13 13 12 11 13 13 11 11 10 12 12 13 11 11 10 9 9 8 8 7 7 6 4 3
3 2 3 6 8 5 5 5 4 6 8 7 10 9 5 9 12 16 15 15 15 15 14 13 13 12 13 12 11 10 11 11 12 11 12 13 12 12 11 9 9 8 7 7 5 4 3 2 0
2 2 3 2 6 4 8 5 9 4 7 11 7 6 8 13 15 15 14 14 14 14 13 12 12 12 12 11 13 12 11 10 10 11 11 12 12 11 9 8 7 6 5 4 3 2 1 1 2
1 3 3 2 4 6 11 5 5 3 12 3 2 7 16 22 18 16 16 14 14 13 14 14 13 12 13 13 12 11 11 10 11 11 12 12 10 9 8 8 7 5 3 3 3 4 3 4 5
3 2 2 1 2 5 14 10 10 7 9 4 9 14 24 21 20 19 18 16 16 16 14 14 14 14 15 13 14 13 12 11 11 11 11 11 10 10 8 8 7 5 6 6 7 5 5 5 3
2 2 0 2 1 8 13 9 5 11 6 8 17 20 22 21 17 16 16 16 18 16 16 16 15 15 15 14 14 13 12 11 12 15 14 13 10 10 8 7 6 5 5 5 5 6 4 4 1
1 1 2 3 4 5 9 9 5 11 2 8 19 21 22 18 19 18 15 16 17 17 17 16 17 17 16 14 14 13 11 11 11 12 14 13 13 12 10 9 8 7 3 4 5 2 2 2 3
2 2 2 1 3 5 9 7 2 8 5 14 18 19 18 17 19 18 16 14 16 18 18 18 18 17 15 16 14 13 12 12 12 13 15 14 13 12 10 10 9 8 9 9 7 5 4 3 4
4 6 2 2 2 3 7 5 5 6 12 16 19 18 17 16 19 17 16 17 18 17 18 18 18 18 15 15 16 16 15 14 14 13 13 14 14 13 12 10 10 8 8 8 8 6 5 5 4
2 4 7 8 4 3 7 5 8 9 15 18 19 16 16 17 19 20 20 19 19 18 17 19 20 20 22 20 17 14 13 13 14 13 13 12 13 15 15 11 13 13 11 8 6 7 7 7 6
1 2 2 5 2 3 8 7 6 14 17 17 18 16 16 17 21 22 20 19 17 16 19 17 18 20 23 23 20 15 14 11 10 10 12 14 12 13 13 12 11 10 7 7 7 6 4 2 2
4 4 2 2 5 2 4 7 5 13 17 16 17 17 17 17 19 23 23 22 21 19 17 20 20 20 22 25 22 17 15 15 15 14 12 14 14 14 15 11 10 10 8 6 4 4 2 3 5
2 2 2 2 2 3 6 13 5 14 17 19 18 17 17 17 20 25 25 24 23 23 22 20 21 22 28 25 23 19 18 19 18 17 15 14 15 16 16 13 12 10 10 7 4 3 6 8 10
6 4 4 7 7 5 12 14 12 14 16 17 18 18 19 20 23 23 24 25 25 24 25 27 26 25 25 23 19 17 17 16 17 20 19 18 17 17 17 15 13 12 11 11 10 6 11 11 8
2 2 3 7 5 5 8 16 10 15 21 21 21 19 20 20 18 21 24 25 28 27 28 29 33 33 30 21 18 14 14 14 14 15 18 19 17 17 19 19 18 14 9 9 9 7 15 15 7
2 1 1 4 6 2 9 9 5 9 15 17 19 19 19 19 20 19 21 27 27 28 31 35 39 38 36 31 20 18 18 15 13 13 13 16 19 21 21 20 18 16 10 14 17 19 21 13 7
4 4 5 5 4 4 6 6 5 1 8 17 19 19 20 21 18 17 20 21 29 32 28 31 38 39 39 33 23 23 19 17 13 9 9 7 8 8 10 11 9 14 15 20 24 18 12 8 6
2 3 4 3 2 7 3 4 5 1 5 10 17 19 21 21 20 19 21 23 25 24 30 33 33 31 30 32 30 23 20 14 9 10 9 7 3 2 6 8 12 18 26 23 18 10 8 7 4
4 2 4 3 1 2 2 3 8 3 2 4 4 15 17 15 15 16 18 16 16 19 23 23 33 30 26 31 29 23 15 10 8 6 5 3 10 11 11 7 6 10 16 14 10 8 6 3 4
4 1 3 2 1 2 0 4 11 4 7 7 9 7 12 13 12 10 12 14 17 18 20 21 25 23 26 27 27 19 11 7 8 8 8 8 9 10 12 9 4 6 8 8 6 6 4 3 3
5 3 3 5 5 6 2 5 4 2 4 4 4 3 3 6 9 7 4 4 15 21 25 30 31 28 26 20 15 14 17 17 15 10 7 7 10 11 8 10 9 9 9 8 7 6 8 10 11
6 6 1 3 1 4 2 5 10 2 3 1 2 2 3 3 3 2 2 3 2 11 18 15 17 24 22 21 18 22 22 17 20 15 10 8 5 9 10 10 9 9 8 9 12 11 13 12 12
3 5 3 2 4 7 4 5 6 12 12 8 5 7 5 4 2 1 2 5 6 8 9 17 20 22 24 24 24 28 24 17 17 15 11 12 10 9 12 12 11 11 12 11 11 11 10 10 10
4 4 2 0 3 6 8 6 2 10 11 13 9 7 5 5 3 2 3 5 7 6 3 11 17 23 26 27 31 32 32 25 18 12 16 13 12 12 14 13 12 11 10 10 9 9 9 9 9
2 2 2 3 5 3 4 8 3 8 12 10 9 6 5 5 7 5 4 2 2 3 11 16 20 22 24 27 25 25 26 20 13 12 18 15 13 16 15 13 12 11 10 10 10 8 7 8 9
Wind_Direction
211 250 330 315 114 100 78 71 88 124 136 88 115 287 157 37 359 86 136 155 147 148 152 151 146 147 144 139 134 133 131 136 134 133 133 135 129 127 127 125 118 116 113 111 114 114 107 107 113
176 128 48 94 79 105 81 71 133 144 133 125 93 117 60 90 75 119 139 154 150 147 147 150 153 149 146 137 138 136 136 137 136 137 133 131 128 125 125 120 122 118 117 119 117 117 108 103 101
108 85 25 74 95 85 111 120 109 101 138 136 111 60 90 80 122 143 139 148 150 149 149 154 157 148 141 137 142 138 137 134 134 133 135 135 134 129 129 124 125 124 122 121 119 118 109 107 94
77 83 93 83 88 68 118 142 127 117 122 140 128 89 90 193 145 152 146 149 149 149 148 156 155 145 144 142 150 135 141 139 133 139 141 127 124 129 131 129 126 126 124 119 118 119 119 110 103
33 72 71 84 69 79 123 141 143 131 120 137 161 122 116 39 154 144 147 149 153 150 149 151 153 159 157 152 146 142 141 136 139 143 136 131 133 134 137 136 136 130 125 121 122 124 125 117 109
72 0 87 89 93 102 113 146 104 113 123 124 124 120 98 134 141 146 150 152 157 153 152 155 162 155 156 151 146 147 147 144 137 135 131 136 138 144 144 145 140 135 131 129 131 131 127 121 113
91 80 91 103 116 143 147 139 118 118 133 123 131 114 109 158 151 147 150 156 156 156 160 162 160 159 157 154 152 151 147 145 142 153 150 149 154 156 160 154 148 144 138 134 137 142 145 148 172
97 123 112 81 165 132 141 126 138 106 97 125 135 151 156 166 156 147 152 159 161 163 167 167 163 161 158 161 164 161 157 164 169 164 162 162 163 163 166 162 160 158 152 155 165 185 217 251 278
181 66 81 93 187 120 152 142 150 97 141 138 68 150 141 153 152 150 156 165 171 175 177 174 170 166 169 168 173 163 170 173 177 173 176 169 172 174 183 190 182 187 189 202 231 238 246 266 277
61 92 83 90 241 160 163 160 152 144 156 132 105 121 140 155 163 163 171 176 181 184 187 185 180 178 175 171 173 176 177 182 182 182 185 184 183 184 187 198 200 213 231 235 234 247 264 278 277
94 89 344 169 151 149 158 160 149 154 198 190 162 152 155 164 176 178 182 185 187 190 188 191 187 185 185 184 183 184 187 189 190 189 188 189 190 194 199 212 221 235 256 259 257 275 258 271 293
6 258 264 80 111 121 157 151 151 172 310 177 162 160 162 172 180 185 190 189 188 192 194 194 196 191 189 190 191 194 193 192 191 193 193 195 199 205 204 216 219 218 214 288 267 315 325 339 355
268 349 238 325 88 76 146 165 140 196 120 142 154 162 175 183 186 189 188 190 191 192 193 197 201 201 196 194 196 197 197 194 194 193 194 199 208 216 217 225 232 237 256 304 269 278 297 316 352
344 335 313 38 225 136 163 159 172 172 144 150 165 174 180 190 195 192 193 190 194 198 194 191 200 205 207 207 204 195 190 192 198 206 209 214 219 222 226 235 239 251 269 280 270 268 283 297 321
349 115 104 39 107 136 168 199 227 166 166 165 176 182 187 197 200 205 201 202 196 196 194 196 193 198 206 209 206 205 204 204 208 214 216 226 239 242 240 246 252 260 259 257 261 266 278 296 295
68 69 72 2 5 103 200 258 218 174 174 179 183 184 195 202 209 210 209 209 207 198 195 196 198 197 196 198 204 209 217 222 229 233 235 237 239 234 242 262 270 258 242 246 268 280 265 281 337
12 111 55 160 26 133 219 271 209 180 187 184 190 192 195 205 214 216 214 209 208 208 201 197 197 200 198 196 199 210 219 227 229 235 240 244 241 241 248 256 263 264 257 270 283 267 299 317 338
62 143 98 260 278 258 251 263 232 194 200 194 196 199 201 205 218 217 213 213 212 205 204 206 204 200 196 201 206 212 216 228 239 239 245 249 252 251 252 258 266 270 262 276 290 325 340 323 316
145 173 195 230 227 248 248 253 246 201 211 212 205 204 208 209 214 216 217 214 211 210 205 203 207 211 206 202 202 215 223 227 230 236 240 244 251 255 255 260 267 270 266 263 276 302 327 306 296
154 306 280 287 280 270 310 269 252 207 212 214 213 211 214 216 217 220 216 214 210 210 208 209 210 212 214 213 209 211 216 227 224 230 237 241 247 251 254 258 262 269 279 289 300 303 264 268 281
169 231 233 297 338 222 312 274 254 236 226 222 227 225 227 224 217 215 215 215 214 211 209 211 213 213 215 215 217 223 230 228 227 237 248 246 249 260 255 257 258 261 289 293 288 266 252 257 247
35 6 338 314 317 309 359 309 289 240 230 224 229 225 227 224 226 225 217 210 210 216 214 211 214 213 217 218 216 215 221 224 228 224 236 238 249 262 269 272 239 302 273 274 270 259 251 243 221
48 44 20 348 307 314 8 278 283 254 273 244 238 232 231 232 227 228 224 217 218 211 202 205 212 212 210 214 218 223 225 238 219 224 213 220 224 299 272 247 248 276 271 268 252 236 232 244 221
105 354 38 53 46 265 302 261 287 316 245 292 305 236 231 228 228 232 235 212 209 215 202 199 206 208 210 220 222 220 224 237 227 186 155 83 39 17 354 311 257 234 230 215 208 209 214 187 181
198 282 301 254 237 322 31 233 269 246 283 295 293 279 236 228 222 227 222 217 209 202 193 192 202 203 214 222 223 218 217 188 143 115 102 81 28 360 348 315 278 214 199 190 209 197 178 175 152
176 213 267 294 308 328 158 243 311 40 279 274 291 273 203 200 212 210 202 214 208 199 198 207 212 204 212 204 196 168 139 112 72 43 17 32 24 331 336 304 264 239 219 192 183 170 136 139 127
143 212 62 259 199 263 297 266 280 281 330 259 234 222 147 181 180 192 26 16 313 237 228 209 193 198 189 172 158 141 120 102 79 69 16 8 283 291 289 247 226 199 180 156 143 132 131 136 129
258 137 216 188 266 285 282 281 289 323 357 349 271 226 185 150 165 129 334 324 317 302 261 206 201 187 180 177 180 165 148 137 123 119 197 217 251 248 214 202 184 167 156 150 146 142 147 150 139
154 194 100 199 282 298 300 285 290 300 315 313 300 239 193 160 161 84 20 342 339 338 204 165 164 161 161 177 181 181 175 193 221 224 218 205 192 193 198 191 180 174 167 168 166 168 165 167 159
280 131 193 270 294 237 285 283 242 273 301 297 298 205 191 167 136 134 136 117 63 102 136 147 150 154 166 169 170 174 176 195 223 201 219 199 188 181 188 191 190 186 183 181 177 163 166 160 156